West Paducah, KY

4:45 AM CDT on July 30, 2016 (GMT -0500)
Barkley Regional

Weather History for KPAH - December, 2012

Change the Weather History Date:

Thursday, December 20, 2012

  Actual Average Record
Temperature  
Mean Temperature 47 °F 36 °F  
Max Temperature 62 °F 45 °F 68 °F (1949)
Min Temperature 31 °F 28 °F 4 °F (1989)
Degree Days  
Heating Degree Days 18 29  
Month to date heating degree days 305 528  
Since 1 July heating degree days 1197 1305  
Cooling Degree Days 0 0  
Month to date cooling degree days 1 0  
Year to date cooling degree days 1978 1542  
Moisture  
Dew Point 39 °F    
Average Humidity 74    
Maximum Humidity 100    
Minimum Humidity 48    
Precipitation  
Precipitation 0.57 in 0.15 in 0.96 in (1956)
Month to date precipitation 2.47 3.05  
Year to date precipitation 28.61 47.54  
Snow  
Snow T in 0.10 in 3.00 in (1960)
Month to date snowfall T 1.3  
Since 1 July snowfall T 1.4  
Snow Depth 0.00 in    
Sea Level Pressure  
Sea Level Pressure 29.62 in    
Wind  
Wind Speed 21 mph (SW)    
Max Wind Speed 41 mph    
Max Gust Speed 54 mph    
Visibility 9 miles    
Events Rain , Thunderstorm    
T = Trace of Precipitation, MM = Missing Value Source: NWS Daily Summary

Daily Weather History Graph

Daily Weather History Graph

Search for Another Location

Airport or City:

Trip Planner

Search our weather history database for the weather conditions in past years. The results will help you decide how hot, cold, wet, or windy it might be!

Date:

Astronomy

Dec. 20, 2012 Rise Set
Actual Time 7:04 AM CST 4:41 PM CST
Civil Twilight 6:35 AM CST 5:10 PM CST
Nautical Twilight 6:02 AM CST 5:43 PM CST
Astronomical Twilight 5:31 AM CST 6:14 PM CST
Moon 11:52 AM CST (12/20) No Moon Set
Length of Visible Light 10h 35m
Length of Day
9h 36m
First Quarter, 55% of the Moon is Illuminated
Dec 20
First Quarter
Dec 28
Full
Jan 4
Last Quarter
Jan 11
New
Jan 18
First Quarter

Hourly Weather History & Observations

Time (CST) Temp. Windchill Dew Point Humidity Pressure Visibility Wind Dir Wind Speed Gust Speed Precip Events Conditions
12:53 AM 62.1 °F - 43.0 °F 50% 29.60 in 10.0 mi South 21.9 mph 32.2 mph N/A   Partly Cloudy
1:53 AM 62.1 °F - 45.0 °F 53% 29.55 in 10.0 mi South 18.4 mph 32.2 mph N/A   Mostly Cloudy
2:08 AM 60.8 °F - 48.2 °F 63% 29.55 in 10.0 mi South 20.7 mph 33.4 mph 0.00 in Rain , Thunderstorm Light Rain
2:23 AM 57.2 °F - 51.8 °F 82% 29.55 in 5.0 mi SSE 20.7 mph 36.8 mph 0.00 in Rain Light Rain
2:53 AM 57.0 °F - 51.1 °F 81% 29.51 in 10.0 mi SSE 16.1 mph 24.2 mph 0.02 in   Mostly Cloudy
3:11 AM 57.2 °F - 51.8 °F 82% 29.50 in 10.0 mi South 15.0 mph 25.3 mph N/A   Overcast
3:53 AM 59.0 °F - 52.0 °F 78% 29.45 in 10.0 mi South 16.1 mph 26.5 mph N/A   Overcast
4:53 AM 60.1 °F - 55.0 °F 83% 29.44 in 5.0 mi South 12.7 mph 31.1 mph 0.02 in Rain Rain
5:09 AM 59.0 °F - 55.4 °F 88% 29.47 in 1.8 mi West 16.1 mph 24.2 mph 0.07 in Rain Heavy Rain
5:22 AM 59.0 °F - 57.2 °F 94% 29.48 in 2.5 mi WSW 13.8 mph - 0.28 in Rain Heavy Rain
5:26 AM 59.0 °F - 57.2 °F 94% 29.48 in 3.0 mi WSW 12.7 mph - 0.30 in Rain Rain
5:41 AM 59.0 °F - 57.2 °F 94% 29.46 in 4.0 mi SW 8.1 mph - 0.36 in Rain Rain
5:53 AM 57.9 °F - 57.0 °F 97% 29.44 in 3.0 mi South 4.6 mph - 0.41 in Rain Rain
6:53 AM 57.9 °F - 53.1 °F 84% 29.37 in 10.0 mi South 13.8 mph 25.3 mph 0.12 in Rain Light Rain
7:53 AM 55.9 °F - 50.0 °F 80% 29.41 in 10.0 mi SW 20.7 mph 35.7 mph 0.00 in   Overcast
8:00 AM 55.4 °F - 48.2 °F 77% 29.42 in 10.0 mi SW 23.0 mph 35.7 mph N/A   Overcast
8:53 AM 54.0 °F - 44.1 °F 69% 29.44 in 10.0 mi SW 24.2 mph 40.3 mph N/A   Overcast
9:53 AM 50.0 °F - 39.0 °F 66% 29.49 in 10.0 mi WSW 31.1 mph 47.2 mph N/A   Overcast
10:53 AM 46.9 °F - 33.1 °F 59% 29.51 in 10.0 mi WSW 27.6 mph 44.9 mph N/A   Mostly Cloudy
11:53 AM 42.1 °F 30.8 °F 30.9 °F 65% 29.53 in 10.0 mi WSW 33.4 mph 49.5 mph N/A   Overcast
12:29 PM 39.2 °F 26.8 °F 30.2 °F 70% 29.56 in 10.0 mi WSW 33.4 mph 48.3 mph N/A   Overcast
12:53 PM 39.9 °F 28.0 °F 30.0 °F 68% 29.58 in 10.0 mi WSW 32.2 mph 44.9 mph N/A   Overcast
1:53 PM 37.9 °F 25.9 °F 26.1 °F 62% 29.61 in 10.0 mi WSW 28.8 mph 44.9 mph N/A   Overcast
2:53 PM 37.9 °F 26.3 °F 26.1 °F 62% 29.66 in 10.0 mi West 26.5 mph 38.0 mph N/A   Overcast
3:53 PM 37.9 °F 27.1 °F 26.1 °F 62% 29.72 in 10.0 mi West 23.0 mph 34.5 mph N/A   Overcast
4:53 PM 37.9 °F 27.6 °F 26.1 °F 62% 29.78 in 10.0 mi West 20.7 mph 36.8 mph N/A   Overcast
5:53 PM 37.0 °F 25.9 °F 25.0 °F 62% 29.82 in 10.0 mi West 23.0 mph 35.7 mph N/A   Overcast
6:53 PM 36.0 °F 25.6 °F 24.1 °F 62% 29.86 in 10.0 mi West 18.4 mph 31.1 mph 0.00 in   Overcast
7:53 PM 35.1 °F 24.8 °F 21.9 °F 59% 29.89 in 10.0 mi West 17.3 mph 35.7 mph N/A   Overcast
8:53 PM 34.0 °F 22.4 °F 21.0 °F 59% 29.92 in 10.0 mi West 20.7 mph 31.1 mph N/A   Mostly Cloudy
9:53 PM 32.0 °F 20.1 °F 19.0 °F 59% 29.94 in 10.0 mi WNW 19.6 mph 28.8 mph N/A   Partly Cloudy
10:53 PM 32.0 °F 22.1 °F 19.0 °F 59% 29.97 in 10.0 mi WNW 13.8 mph 28.8 mph N/A   Clear
11:53 PM 30.9 °F 19.8 °F 19.0 °F 61% 29.97 in 10.0 mi West 16.1 mph 24.2 mph N/A   Clear